| time (UTC) | temp F | wind direction | speed MPH | gust MPH | rain 1hr in | rain 24hr in | rain mn in | humidity % | barometer mb |
| 20260902220042 | 96 | 324 | 1.0 | 3.0 | 0.00 | 0.00 | 0.00 | 45 | 1016.1 |
| 20260902214543 | 96 | 41 | 0.0 | 3.0 | 0.00 | 0.00 | 0.00 | 43 | 1016.0 |
| 20260902213039 | 95 | 340 | 2.0 | 5.0 | 0.00 | 0.00 | 0.00 | 48 | 1015.8 |
| 20260902211540 | 94 | 257 | 1.0 | 3.0 | 0.00 | 0.00 | 0.00 | 48 | 1015.6 |
| 20260902210038 | 95 | 257 | 0.0 | 1.0 | 0.00 | 0.00 | 0.00 | 50 | 1015.7 |
| 20260902204536 | 95 | 257 | 0.0 | 1.0 | 0.00 | 0.00 | 0.00 | 44 | 1015.7 |
| 20260902203036 | 97 | 257 | 0.0 | 3.0 | 0.00 | 0.00 | 0.00 | 42 | 1015.7 |
| 20260902201539 | 97 | 109 | 0.0 | 5.0 | 0.00 | 0.00 | 0.00 | 40 | 1015.8 |
| 20260902200034 | 96 | 88 | 0.0 | 7.0 | 0.00 | 0.00 | 0.00 | 41 | 1016.1 |
| 20260902194532 | 97 | 248 | 0.0 | 4.0 | 0.00 | 0.00 | 0.00 | 42 | 1016.4 |
| 20260902193026 | 96 | 120 | 2.0 | 7.0 | 0.00 | 0.00 | 0.00 | 41 | 1016.6 |
| 20260902191525 | 96 | 58 | 4.0 | 11.0 | 0.00 | 0.00 | 0.00 | 44 | 1016.8 |
| 20260902190024 | 96 | 267 | 2.0 | 7.0 | 0.00 | 0.00 | 0.00 | 44 | 1016.9 |
| 20260902184523 | 95 | 30 | 5.0 | 13.0 | 0.00 | 0.00 | 0.00 | 42 | 1017.0 |
| 20260902183024 | 95 | 274 | 3.0 | 8.0 | 0.00 | 0.00 | 0.00 | 45 | 1017.1 |
| 20260902181519 | 95 | 249 | 2.0 | 10.0 | 0.00 | 0.00 | 0.00 | 42 | 1017.2 |
| 20260902180018 | 95 | 16 | 2.0 | 6.0 | 0.00 | 0.00 | 0.00 | 44 | 1017.4 |
| 20260902174516 | 94 | 338 | 1.0 | 8.0 | 0.00 | 0.00 | 0.00 | 45 | 1017.3 |
| 20260902173028 | 95 | 313 | 1.0 | 4.0 | 0.00 | 0.00 | 0.00 | 45 | 1017.5 |
| 20260902171513 | 94 | 301 | 2.0 | 9.0 | 0.00 | 0.00 | 0.00 | 47 | 1017.7 |
| 20260902170012 | 94 | 228 | 6.0 | 10.0 | 0.00 | 0.00 | 0.00 | 46 | 1017.8 |
| 20260902164509 | 93 | 355 | 2.0 | 7.0 | 0.00 | 0.00 | 0.00 | 48 | 1017.9 |
| 20260902163006 | 93 | 244 | 6.0 | 10.0 | 0.00 | 0.00 | 0.00 | 52 | 1018.1 |
| 20260902161511 | 93 | 215 | 3.0 | 6.0 | 0.00 | 0.00 | 0.00 | 53 | 1018.2 |
| 20260902160100 | 92 | 271 | 5.0 | 9.0 | 0.00 | 0.00 | 0.00 | 53 | 1018.4 |
| 20260902154556 | 91 | 306 | 2.0 | 4.0 | 0.00 | 0.00 | 0.00 | 54 | 1018.7 |
| 20260902153054 | 90 | 319 | 1.0 | 6.0 | 0.00 | 0.00 | 0.00 | 57 | 1018.6 |
| 20260902151551 | 91 | 220 | 5.0 | 9.0 | 0.00 | 0.00 | 0.00 | 53 | 1018.7 |
| 20260902150047 | 90 | 65 | 1.0 | 4.0 | 0.00 | 0.00 | 0.00 | 58 | 1018.7 |
| 20260902144542 | 89 | 61 | 2.0 | 4.0 | 0.00 | 0.00 | 0.00 | 62 | 1018.5 |
| 20260902143039 | 88 | 348 | 2.0 | 5.0 | 0.00 | 0.00 | 0.00 | 64 | 1018.5 |
| 20260902141537 | 87 | 38 | 2.0 | 5.0 | 0.00 | 0.00 | 0.00 | 66 | 1018.4 |
| 20260902140034 | 86 | 339 | 2.0 | 5.0 | 0.00 | 0.00 | 0.00 | 68 | 1018.5 |
| 20260902134525 | 85 | 12 | 2.0 | 5.0 | 0.00 | 0.00 | 0.00 | 69 | 1018.2 |
| 20260902133021 | 84 | 15 | 2.0 | 5.0 | 0.00 | 0.00 | 0.00 | 71 | 1018.2 |
| 20260902131527 | 83 | 355 | 3.0 | 5.0 | 0.00 | 0.00 | 0.00 | 72 | 1018.2 |
| 20260902130012 | 82 | 342 | 3.0 | 4.0 | 0.00 | 0.00 | 0.00 | 72 | 1018.2 |
| 20260902124517 | 81 | 355 | 2.0 | 3.0 | 0.00 | 0.00 | 0.00 | 78 | 1018.2 |
| 20260902123004 | 78 | 360 | 2.0 | 4.0 | 0.00 | 0.00 | 0.00 | 83 | 1018.3 |
| 20260902121611 | 76 | 360 | 1.0 | 4.0 | 0.00 | 0.00 | 0.00 | 85 | 1018.3 |
| 20260902114609 | 74 | 360 | 0.0 | 0.0 | 0.00 | 0.00 | 0.00 | 88 | 1018.5 |
| 20260902113055 | 73 | 360 | 0.0 | 0.0 | 0.00 | 0.00 | 0.00 | 90 | 1018.3 |
| 20260902111551 | 72 | 360 | 0.0 | 0.0 | 0.00 | 0.00 | 0.00 | 91 | 1018.2 |
| 20260902110041 | 72 | 360 | 0.0 | 0.0 | 0.00 | 0.00 | 0.00 | 91 | 1018.1 |
| 20260902104539 | 71 | 360 | 0.0 | 0.0 | 0.00 | 0.00 | 0.00 | 91 | 1018.1 |
| 20260902103035 | 71 | 360 | 0.0 | 0.0 | 0.00 | 0.00 | 0.00 | 91 | 1018.1 |
| 20260902101534 | 72 | 360 | 0.0 | 0.0 | 0.00 | 0.00 | 0.00 | 91 | 1017.9 |
| 20260902100034 | 72 | 360 | 0.0 | 0.0 | 0.00 | 0.00 | 0.00 | 90 | 1017.8 |
| 20260902094533 | 72 | 360 | 0.0 | 4.0 | 0.00 | 0.00 | 0.00 | 90 | 1017.8 |
| 20260902093032 | 72 | 355 | 0.0 | 0.0 | 0.00 | 0.00 | 0.00 | 91 | 1017.6 |
| 20260902091542 | 72 | 355 | 0.0 | 0.0 | 0.00 | 0.00 | 0.00 | 90 | 1017.8 |
| 20260902090033 | 72 | 355 | 0.0 | 0.0 | 0.00 | 0.00 | 0.00 | 90 | 1017.7 |
| 20260902084529 | 73 | 355 | 0.0 | 0.0 | 0.00 | 0.00 | 0.00 | 89 | 1017.7 |
| 20260902083029 | 73 | 355 | 0.0 | 0.0 | 0.00 | 0.00 | 0.00 | 88 | 1017.5 |
| 20260902081536 | 73 | 355 | 0.0 | 0.0 | 0.00 | 0.00 | 0.00 | 88 | 1017.5 |
| 20260902080027 | 73 | 355 | 0.0 | 0.0 | 0.00 | 0.00 | 0.00 | 89 | 1017.6 |
| 20260902074538 | 73 | 355 | 0.0 | 2.0 | 0.00 | 0.00 | 0.00 | 88 | 1017.5 |
| 20260902073024 | 73 | 355 | 1.0 | 4.0 | 0.00 | 0.00 | 0.00 | 88 | 1017.4 |
| 20260902071524 | 73 | 355 | 1.0 | 3.0 | 0.00 | 0.00 | 0.00 | 87 | 1017.4 |
| 20260902070021 | 74 | 355 | 0.0 | 2.0 | 0.00 | 0.00 | 0.00 | 86 | 1017.5 |
| 20260902064530 | 75 | 355 | 1.0 | 4.0 | 0.00 | 0.00 | 0.00 | 85 | 1017.6 |
| 20260902063023 | 74 | 355 | 1.0 | 4.0 | 0.00 | 0.00 | 0.00 | 86 | 1017.7 |
| 20260902061535 | 74 | 5 | 2.0 | 5.0 | 0.00 | 0.00 | 0.00 | 86 | 1017.7 |
| 20260902060018 | 75 | 18 | 0.0 | 0.0 | 0.00 | 0.00 | 0.00 | 85 | 1017.6 |
| 20260902054527 | 76 | 18 | 0.0 | 0.0 | 0.00 | 0.00 | 0.00 | 83 | 1017.7 |
| 20260902053013 | 76 | 18 | 0.0 | 0.0 | 0.00 | 0.00 | 0.00 | 82 | 1017.5 |
| 20260902051507 | 77 | 18 | 0.0 | 0.0 | 0.00 | 0.00 | 0.00 | 81 | 1017.4 |
| 20260902050007 | 78 | 18 | 0.0 | 0.0 | 0.00 | 0.00 | 0.00 | 80 | 1017.3 |
| 20260902044501 | 78 | 18 | 0.0 | 0.0 | 0.00 | 0.00 | 0.00 | 79 | 1017.1 |
| 20260902043104 | 79 | 18 | 0.0 | 0.0 | 0.00 | 0.00 | 0.00 | 78 | 1017.0 |
| 20260902041559 | 79 | 18 | 0.0 | 0.0 | 0.00 | 0.00 | 0.00 | 78 | 1016.9 |
| 20260902040058 | 79 | 19 | 0.0 | 3.0 | 0.00 | 0.00 | 0.00 | 79 | 1016.8 |
| 20260902034605 | 78 | 19 | 1.0 | 4.0 | 0.00 | 0.00 | 0.00 | 80 | 1016.8 |
| 20260902033103 | 77 | 348 | 2.0 | 5.0 | 0.00 | 0.00 | 0.00 | 81 | 1017.0 |
| 20260902031554 | 77 | 337 | 3.0 | 5.0 | 0.00 | 0.00 | 0.00 | 84 | 1016.8 |
| 20260902030053 | 77 | 315 | 1.0 | 3.0 | 0.00 | 0.00 | 0.00 | 83 | 1016.9 |
| 20260902024553 | 78 | 308 | 0.0 | 2.0 | 0.00 | 0.00 | 0.00 | 82 | 1017.0 |
| 20260902023053 | 78 | 308 | 0.0 | 2.0 | 0.00 | 0.00 | 0.00 | 80 | 1016.9 |
| 20260902021551 | 79 | 19 | 1.0 | 2.0 | 0.00 | 0.00 | 0.00 | 79 | 1016.9 |
| 20260902020059 | 80 | 19 | 0.0 | 2.0 | 0.00 | 0.00 | 0.00 | 77 | 1016.6 |
| 20260902014552 | 81 | 16 | 0.0 | 0.0 | 0.00 | 0.00 | 0.00 | 75 | 1016.5 |
| 20260902013050 | 81 | 16 | 0.0 | 2.0 | 0.00 | 0.00 | 0.00 | 74 | 1016.3 |
| 20260902011549 | 83 | 16 | 0.0 | 0.0 | 0.00 | 0.00 | 0.00 | 73 | 1016.3 |
| 20260902010053 | 83 | 16 | 0.0 | 0.0 | 0.00 | 0.00 | 0.00 | 71 | 1015.9 |
| 20260902004550 | 84 | 16 | 0.0 | 0.0 | 0.00 | 0.00 | 0.00 | 69 | 1015.7 |
| 20260902003049 | 85 | 5 | 0.0 | 1.0 | 0.00 | 0.00 | 0.00 | 68 | 1015.5 |
| 20260902001556 | 86 | 10 | 0.0 | 1.0 | 0.00 | 0.00 | 0.00 | 66 | 1015.4 |
| 20260902000047 | 88 | 348 | 0.0 | 1.0 | 0.00 | 0.00 | 0.00 | 66 | 1015.4 |
| 20260901234548 | 89 | 348 | 0.0 | 0.0 | 0.00 | 0.00 | 0.00 | 64 | 1015.4 |
| 20260901233057 | 90 | 347 | 0.0 | 0.0 | 0.00 | 0.00 | 0.00 | 61 | 1015.7 |
| 20260901231547 | 90 | 347 | 0.0 | 0.0 | 0.00 | 0.00 | 0.00 | 61 | 1015.9 |
| 20260901230044 | 91 | 347 | 0.0 | 0.0 | 0.00 | 0.00 | 0.00 | 60 | 1015.9 |
| 20260901224544 | 92 | 347 | 0.0 | 0.0 | 0.00 | 0.00 | 0.00 | 55 | 1015.7 |
| 20260901223046 | 92 | 347 | 0.0 | 2.0 | 0.00 | 0.00 | 0.00 | 54 | 1015.6 |
| 20260901221542 | 93 | 332 | 1.0 | 5.0 | 0.00 | 0.00 | 0.00 | 53 | 1015.6 |